[[{"header":{"parameterUnit":"m.s-1","parameterCategory":1,"la1":30.2991,"la2":30.254,"lo1":-89.0895,"lo2":-89.0444,"dy":0.0017,"dx":0.0017,"nx":28,"ny":28,"refTime":"2024-11-28T09:00:00:Z","depth":0,"parameterNumber":2,"parameterNumberName":"U-component_of_WINDS"},"data":[0,0,0,0,0,0,0,0,0,0,0,0,0,0,0,0,0,0,0,0,0,0,0,0,0,0,0,0,0,0,0,0,0,0,0,0,0,0,0,0,0,0,0,0,0,0,0,0,0,0,0,0,0,0,0,0,0,0,-4.3878,-4.3879,0,-4.3966,-4.3967,-4.3968,-4.3817,-4.3811,-4.3806,-4.3801,-4.3895,-4.3902,-4.3909,0,0,0,0,0,0,0,0,0,0,0,0,0,-4.3577,-4.3584,-4.3878,-4.3879,-4.388,-4.3966,-4.3967,-4.3969,-4.3818,-4.3811,-4.3805,-4.3799,-4.3892,-4.3901,-4.3909,0,0,0,0,0,0,0,0,0,0,0,0,0,-4.3691,-4.3586,-4.3877,-4.3815,-4.381,-4.3966,-4.3968,-4.3969,-4.3819,-4.3811,-4.3803,-4.3796,-4.3889,-4.39,-4.3911,-4.4133,0,0,-4.3944,-4.3949,0,0,0,0,0,0,0,0,-4.3685,-4.3702,-4.3823,-4.3819,-4.3814,-4.3872,-4.3895,-4.4024,-4.3821,-4.3816,-4.3801,-4.3792,-4.3894,-4.3904,-4.3937,-4.4137,-4.4141,-4.3945,-4.3952,-4.3956,-4.3959,0,0,0,0,0,0,0,-4.3677,-4.3698,-4.3913,-4.3825,-4.382,-4.3782,-4.379,-4.3919,-4.3897,-4.3815,-4.3805,-4.3817,-4.389,-4.3927,-4.3938,-4.4142,-4.3945,-4.3954,-4.3961,-4.3965,-4.4527,-4.4535,0,0,0,0,0,0,-4.3677,-4.3692,-4.391,-4.3915,-4.3729,-4.3794,-4.3802,-4.3862,-4.3895,-4.3893,-4.3824,-4.381,-4.3912,-4.3926,-4.3941,-4.4203,-4.3956,-4.3966,-4.3973,-4.4519,-4.4529,-4.4538,0,0,0,0,0,0,-4.3671,-4.3698,-4.3906,-4.3801,-4.3824,-4.3807,-4.3875,-4.3868,-4.3905,-4.3901,-4.3896,-4.3866,-4.3907,-4.3926,-4.4086,-4.4204,-4.3971,-4.3981,-4.4509,-4.4522,-4.4534,-4.4729,0,0,0,0,0,0,-4.3663,-4.3697,-4.3781,-4.3804,-4.3831,-4.405,-4.3882,-4.3875,-4.3924,-4.3906,-4.394,-4.3938,-4.3902,-4.407,-4.4097,-4.4215,-4.399,-4.4498,-4.4515,-4.453,-4.4712,-4.4747,-4.4777,0,0,0,0,0,-4.3653,-4.3833,-4.3786,-4.3813,-4.3936,-4.4057,-4.4073,-4.4027,-4.3934,-4.4019,-4.4016,-4.3937,-4.4186,-4.4088,-4.4116,-4.424,-4.4491,-4.451,-4.4528,-4.4698,-4.474,-4.4776,0,0,0,0,0,0,-4.3826,-4.3835,-4.3783,-4.3976,-4.4017,-4.4031,-4.4137,-4.4074,-4.4143,-4.4124,-4.4065,-4.4074,-4.4246,-4.4258,-4.4148,-4.4456,-4.4323,-4.4348,-4.4442,-4.4482,-4.4514,-4.4508,-4.3999,0,0,0,0,0,-4.3886,-4.3984,-4.3986,-4.4156,-4.4179,-4.4155,-4.4206,-4.4168,-4.4208,-4.4225,-4.4234,-4.4276,-4.4364,-4.4423,-4.4504,-4.4712,-4.4717,-4.4811,-4.4843,-4.487,-4.4893,-4.5004,-4.5046,-4.46,-4.46,-4.4599,0,0,-4.4012,-4.4029,-4.4095,-4.4192,-4.4219,-4.4321,-4.4171,-4.4286,-4.4362,-4.4242,-4.4394,-4.4402,-4.4445,-4.4631,-4.4713,-4.4646,-4.5017,-4.4894,-4.4915,-4.4924,-4.5028,-4.507,-4.5107,-4.4613,-4.461,-4.4608,0,0,-4.4295,-4.4318,-4.4462,-4.4491,-4.4534,-4.4516,-4.4551,-4.4575,-4.4575,-4.4726,-4.4639,-4.4727,-4.488,-4.4914,-4.4952,-4.5245,-4.5175,-4.5273,-4.5443,-4.5551,-4.5586,-4.5617,-4.5723,-4.5761,-4.5296,-4.5296,-4.5297,0,-4.4447,-4.4598,-4.4544,-4.4665,-4.471,-4.4605,-4.475,-4.4782,-4.485,-4.4883,-4.4807,-4.4995,-4.5017,-4.5209,-4.528,-4.5314,-4.5352,-4.527,-4.5586,-4.5616,-4.5644,-4.5744,-4.5784,-4.5308,-4.5307,-4.5305,-4.5304,0,-4.4783,-4.4889,-4.5,-4.5067,-4.5124,-4.5257,-4.5223,-4.5287,-4.5243,-4.5233,-4.5387,-4.5409,-4.5492,-4.5534,-4.5493,-4.572,-4.5678,-4.5595,-4.5461,-4.5699,-4.5792,-4.583,-4.5325,-4.5321,-4.5317,-4.5314,0,0,-4.518,-4.5213,-4.5255,-4.5284,-4.5322,-4.5403,-4.553,-4.561,-4.5667,-4.5716,-4.5822,-4.5952,-4.5875,-4.5918,-4.5879,-4.5974,-4.6206,-4.5879,-4.5879,-4.594,-4.6458,-4.6522,-4.6567,-4.6158,-4.6165,-4.6171,-4.6455,0,-4.5462,-4.5682,-4.5636,-4.5852,-4.5949,-4.5849,-4.596,-4.5995,-4.5989,-4.607,-4.6062,-4.6157,-4.6047,-4.6072,-4.6162,-4.6159,-4.6309,-4.6137,-4.6257,-4.6262,-4.6251,-4.6615,-4.6683,-4.695,-4.6491,-4.6497,-4.6501,0,-4.5821,-4.5883,-4.6109,-4.613,-4.6169,-4.627,-4.6339,-4.6417,-4.6455,-4.6444,-4.6491,-4.6433,-4.6559,-4.6421,-4.6594,-4.6479,-4.6524,-4.653,-4.6539,-4.655,-4.6398,-4.6638,-4.7034,-4.7075,-4.6558,-4.6553,-4.6549,0,-4.609,-4.6229,-4.6382,-4.6409,-4.6438,-4.6511,-4.6526,-4.6556,-4.6607,-4.6667,-4.6699,-4.6774,-4.6815,-4.6874,-4.6838,-4.6741,-4.7017,-4.6877,-4.7012,-4.7013,-4.7077,-4.7074,-4.7488,-4.7104,-4.7103,-4.7103,-4.7102,0,-4.6411,-4.6553,-4.6503,-4.6597,-4.6753,-4.6698,-4.6854,-4.6857,-4.6884,-4.6977,-4.6895,-4.6984,-4.6929,-4.7014,-4.6986,-4.7134,-4.7153,-4.7148,-4.7139,-4.7156,-4.7157,-4.7187,-4.7168,-4.7113,-4.7111,-4.7109,-4.7107,0,-4.6738,-4.671,-4.687,-4.6883,-4.689,-4.7004,-4.7015,-4.7103,-4.7089,-4.7208,-4.7233,-4.7212,-4.7307,-4.7275,-4.7378,-4.7359,-4.7548,-4.7514,-4.7535,-4.7527,-4.7665,-4.7653,-4.8115,-4.8172,-4.775,-4.7754,-4.7757,0,-4.6946,-4.7053,-4.7077,-4.7133,-4.7154,-4.7246,-4.7296,-4.7245,-4.7302,-4.7352,-4.7434,-4.7521,-4.7589,-4.7746,-4.774,-4.7818,-4.7786,-4.7942,-4.7798,-4.7811,-4.779,-4.7785,-4.7795,-4.7972,-4.7977,-4.7981,-4.7984,0,-4.7318,-4.7298,-4.7374,-4.7447,-4.7509,-4.7564,-4.761,-4.7661,-4.7612,-4.768,-4.7776,-4.7829,-4.7932,-4.8021,-4.809,-4.8105,-4.8039,-4.8029,-4.8065,-4.8085,-4.8093,-4.8092,-4.7616,-4.802,-4.8016,-4.8014,-4.8012,-4.801,-4.7593,-4.7683,-4.7713,-4.7801,-4.783,-4.7876,-4.7958,-4.7954,-4.8033,-4.8114,-4.8078,-4.8189,-4.8222,-4.8309,-4.8334,-4.8419,-4.8359,-4.8411,-4.8424,-4.8438,-4.8456,-4.8078,-4.8432,-4.8431,-4.843,-4.8429,-4.8428,0,-4.7961,-4.7975,-4.8056,-4.8124,-4.8193,-4.8121,-4.8168,-4.8231,-4.8329,-4.8366,-4.8433,-4.8543,-4.8628,-4.8628,-4.8706,-4.8775,-4.8746,-4.8798,-4.8793,-4.8798,-4.8505,-4.8467,-4.882,-4.882,-4.882,-4.882,-4.882,-4.882,-4.8161,-4.831,-4.8294,-4.8456,-4.8468,-4.8576,-4.8609,-4.8651,-4.8679,-4.8805,-4.8875,-4.8874,-4.8895,-4.8975,-4.9049,-4.9046,-4.908,-4.9144,-4.913,-4.8857,-4.8819,-4.8782,-4.8745,-4.9151,-4.9152,-4.9416,-4.9418,-4.942]},{"header":{"parameterUnit":"m.s-1","parameterCategory":1,"la1":30.2991,"la2":30.254,"lo1":-89.0895,"lo2":-89.0444,"dy":0.0017,"dx":0.0017,"nx":28,"ny":28,"refTime":"2024-11-28T09:00:00:Z","depth":0,"parameterNumber":3,"parameterNumberName":"V-component_of_WINDS"},"data":[0,0,0,0,0,0,0,0,0,0,0,0,0,0,0,0,0,0,0,0,0,0,0,0,0,0,0,0,0,0,0,0,0,0,0,0,0,0,0,0,0,0,0,0,0,0,0,0,0,0,0,0,0,0,0,0,0,0,-5.5668,-5.5669,0,-5.576,-5.5761,-5.5762,-5.5685,-5.5682,-5.5679,-5.5676,-5.5764,-5.5769,-5.5775,0,0,0,0,0,0,0,0,0,0,0,0,0,-5.5422,-5.5427,-5.5668,-5.567,-5.5671,-5.5759,-5.5761,-5.5762,-5.5686,-5.5682,-5.5678,-5.5674,-5.5762,-5.5769,-5.5775,0,0,0,0,0,0,0,0,0,0,0,0,0,-5.5522,-5.5428,-5.5668,-5.5644,-5.5642,-5.5759,-5.5761,-5.5762,-5.5687,-5.5682,-5.5677,-5.5673,-5.576,-5.5768,-5.5776,-5.5921,0,0,-5.58,-5.5804,0,0,0,0,0,0,0,0,-5.5517,-5.5532,-5.5646,-5.5645,-5.5644,-5.5706,-5.5706,-5.5815,-5.5688,-5.567,-5.5676,-5.567,-5.5748,-5.5757,-5.5784,-5.5925,-5.5928,-5.5801,-5.5806,-5.5809,-5.5812,0,0,0,0,0,0,0,-5.551,-5.5527,-5.5704,-5.5648,-5.5647,-5.5626,-5.5635,-5.5726,-5.5734,-5.5671,-5.5665,-5.5678,-5.5747,-5.5777,-5.5786,-5.593,-5.5801,-5.5808,-5.5813,-5.5816,-5.619,-5.6195,0,0,0,0,0,0,-5.5506,-5.5522,-5.5701,-5.5707,-5.5568,-5.5634,-5.5644,-5.5691,-5.5733,-5.5735,-5.5682,-5.5674,-5.5766,-5.5777,-5.5789,-5.5959,-5.5809,-5.5817,-5.5821,-5.6185,-5.6191,-5.6197,0,0,0,0,0,0,-5.5501,-5.5523,-5.5698,-5.5613,-5.5634,-5.5643,-5.5697,-5.5695,-5.5725,-5.5742,-5.5742,-5.5711,-5.5762,-5.5778,-5.5888,-5.5961,-5.582,-5.5828,-5.6179,-5.6187,-5.6194,-5.6302,0,0,0,0,0,0,-5.5495,-5.5522,-5.5579,-5.5615,-5.5639,-5.5798,-5.5701,-5.5701,-5.574,-5.573,-5.5769,-5.5771,-5.576,-5.5877,-5.5896,-5.5969,-5.5834,-5.6172,-5.6182,-5.6191,-5.6292,-5.6312,-5.633,0,0,0,0,0,-5.5486,-5.5605,-5.5582,-5.5604,-5.571,-5.5802,-5.5815,-5.5801,-5.5746,-5.5802,-5.5812,-5.577,-5.595,-5.5889,-5.591,-5.5987,-5.6167,-5.6179,-5.6191,-5.6283,-5.6308,-5.6329,0,0,0,0,0,0,-5.5575,-5.5609,-5.5584,-5.5719,-5.5758,-5.5789,-5.5859,-5.5829,-5.5884,-5.5872,-5.5851,-5.586,-5.5976,-5.5992,-5.5923,-5.6127,-5.605,-5.6066,-5.6113,-5.6136,-5.6155,-5.6148,-5.584,0,0,0,0,0,-5.5611,-5.5685,-5.571,-5.5826,-5.5847,-5.585,-5.589,-5.5875,-5.5915,-5.5931,-5.5949,-5.5987,-5.6052,-5.6095,-5.6156,-5.6294,-5.63,-5.6357,-5.6376,-5.6391,-5.6405,-5.6477,-5.6502,-5.6235,-5.6235,-5.6234,0,0,-5.5685,-5.5712,-5.576,-5.5844,-5.5873,-5.5948,-5.5865,-5.5948,-5.6002,-5.5943,-5.6048,-5.6063,-5.6104,-5.6228,-5.6284,-5.6245,-5.648,-5.6406,-5.6418,-5.6424,-5.6491,-5.6517,-5.6539,-5.6243,-5.6241,-5.624,0,0,-5.5857,-5.5886,-5.5985,-5.6016,-5.6061,-5.6062,-5.6086,-5.6122,-5.6129,-5.6235,-5.6192,-5.6255,-5.6368,-5.6398,-5.6429,-5.6611,-5.6573,-5.6631,-5.673,-5.68,-5.6821,-5.6839,-5.6902,-5.6926,-5.6645,-5.6645,-5.6646,0,-5.5942,-5.6055,-5.6039,-5.6126,-5.6163,-5.6114,-5.6212,-5.6242,-5.6304,-5.633,-5.6287,-5.6426,-5.645,-5.658,-5.6624,-5.6651,-5.6675,-5.6626,-5.682,-5.6838,-5.6855,-5.6915,-5.6939,-5.6652,-5.6651,-5.6651,-5.665,0,-5.6157,-5.6235,-5.6309,-5.6372,-5.6418,-5.651,-5.6505,-5.6553,-5.6534,-5.6539,-5.6646,-5.6673,-5.6738,-5.6768,-5.675,-5.6894,-5.6869,-5.6823,-5.6744,-5.6887,-5.6943,-5.6966,-5.6662,-5.6659,-5.6657,-5.6656,0,0,-5.6388,-5.644,-5.6468,-5.6494,-5.654,-5.6599,-5.6688,-5.6752,-5.6792,-5.6837,-5.6908,-5.7005,-5.6962,-5.6996,-5.6982,-5.7043,-5.7183,-5.6989,-5.699,-5.7023,-5.7341,-5.7374,-5.7401,-5.7159,-5.7163,-5.7167,-5.7337,0,-5.6561,-5.6717,-5.6704,-5.685,-5.6921,-5.6875,-5.6951,-5.6986,-5.6993,-5.7052,-5.7058,-5.7126,-5.7066,-5.7086,-5.7145,-5.7154,-5.7246,-5.7141,-5.7223,-5.7226,-5.7213,-5.743,-5.7466,-5.7625,-5.7358,-5.7362,-5.7365,0,-5.6784,-5.6836,-5.699,-5.7023,-5.7052,-5.7122,-5.7179,-5.7237,-5.7275,-5.7275,-5.7313,-5.7287,-5.7373,-5.7293,-5.7411,-5.734,-5.7372,-5.7381,-5.7387,-5.7393,-5.7303,-5.744,-5.7676,-5.7699,-5.7399,-5.7397,-5.7394,0,-5.6934,-5.7044,-5.7149,-5.7174,-5.7216,-5.7265,-5.7285,-5.7318,-5.7357,-5.7406,-5.743,-5.7488,-5.752,-5.7564,-5.7554,-5.7497,-5.7673,-5.7593,-5.7673,-5.7673,-5.7711,-5.7709,-5.7954,-5.7735,-5.7735,-5.7734,-5.7734,0,-5.7128,-5.7223,-5.7218,-5.7283,-5.7387,-5.7371,-5.7474,-5.7487,-5.7517,-5.7581,-5.7544,-5.7605,-5.7588,-5.7648,-5.764,-5.7737,-5.7752,-5.7753,-5.7749,-5.7755,-5.7755,-5.7775,-5.7763,-5.7741,-5.7739,-5.7738,-5.7737,0,-5.7314,-5.7315,-5.7426,-5.7457,-5.7466,-5.7542,-5.7567,-5.7626,-5.763,-5.7712,-5.773,-5.7734,-5.7802,-5.7797,-5.7873,-5.7867,-5.7987,-5.7971,-5.7975,-5.7971,-5.8051,-5.8043,-5.8316,-5.835,-5.8111,-5.8114,-5.8116,0,-5.7437,-5.7509,-5.7547,-5.7589,-5.7612,-5.7679,-5.7718,-5.7704,-5.7746,-5.7794,-5.7848,-5.7913,-5.7964,-5.8074,-5.8083,-5.814,-5.8124,-5.8216,-5.8133,-5.8136,-5.8124,-5.8119,-5.8125,-5.8232,-5.8235,-5.8237,-5.8239,0,-5.7654,-5.765,-5.771,-5.7769,-5.7817,-5.7863,-5.7904,-5.794,-5.7929,-5.7978,-5.8048,-5.8088,-5.8166,-5.823,-5.8284,-5.8301,-5.8268,-5.8265,-5.8287,-5.8293,-5.8292,-5.8292,-5.8018,-5.8259,-5.8257,-5.8256,-5.8254,-5.8254,-5.7811,-5.7872,-5.7908,-5.7975,-5.8005,-5.8044,-5.8101,-5.8112,-5.817,-5.8234,-5.8221,-5.8299,-5.8332,-5.8402,-5.8425,-5.8484,-5.845,-5.8482,-5.8489,-5.8497,-5.8506,-5.8284,-5.8494,-5.8493,-5.8493,-5.8492,-5.8492,0,-5.8024,-5.8045,-5.8107,-5.8166,-5.8218,-5.8184,-5.8227,-5.8272,-5.8342,-5.8377,-5.8428,-5.8507,-5.8568,-5.8582,-5.864,-5.8685,-5.867,-5.87,-5.8696,-5.87,-5.8533,-5.8508,-5.871,-5.871,-5.871,-5.871,-5.871,-5.871,-5.8142,-5.8243,-5.8243,-5.8358,-5.8377,-5.8455,-5.8482,-5.8517,-5.8544,-5.8635,-5.8686,-5.8695,-5.8721,-5.878,-5.8834,-5.8836,-5.8859,-5.8894,-5.889,-5.8734,-5.8712,-5.8691,-5.8667,-5.89,-5.89,-5.9051,-5.9053,-5.9054]}]]